Flag for Canada Weather past 2 weeks in Ottawa, Ontario, Canada

Now
66 °F

Light rain. Overcast.


Feels Like: 66 °F
Forecast: N/A
Wind: 6 mph from Southwest

Location: Ottawa Int'L. Ont.

Current Time: Sep 2, 2014 at 6:08:04 PM

Latest Report: Sep 2, 2014 at 5:00 PM


Visibility: 10 mi

Pressure: 29.75 "Hg

Humidity: 94%

Dew point: 64 °F

Location of OttawaLocation

Historic Weather in Ottawa — Graph

°F

Ottawa temperature yesterday

Maximum temperature yesterday: 79 °F (at 3:00 PM)
Minimum temperature yesterday: 63 °F (at 5:00 AM)
Average temperature yesterday: 70 °F

Past Weeks' High & Low Weather Summary

 TemperatureHumidityPressure
High84 °F (Aug 26, 3:00 PM)100% (Aug 19, 5:00 AM)30.22 "Hg (Aug 19, 5:00 AM)
Low48 °F (Aug 19, 5:00 AM)41% (Aug 19, 4:00 PM)29.72 "Hg (Sep 2, 3:00 PM)
Average68 °F79%30.00 "Hg
* Reported Aug 18 5:00 PM — Sep 2 5:00 PM, Ottawa, Weather by CustomWeather, © 2014

Note: Actual official high and low records may vary slightly from our data, if they occured in-between our weather recording intervals... More about our weather records

Advertising

Ottawa weather history for previous 24 hours

 ConditionsComfort  
Time TempWeatherWind HumidityBarometerVisibility
5:00 PM
Sep 2
66 °FLight rain. Overcast.6 mph94%29.75 "Hg10 mi
4:00 PM70 °FRain showers. Overcast.7 mph94%29.75 "Hg2 mi
3:00 PM81 °FBroken clouds.9 mph62%29.72 "Hg15 mi
2:00 PM81 °FBroken clouds.10 mph66%29.75 "Hg15 mi
1:00 PM82 °FBroken clouds.17 mph58%29.77 "Hg15 mi
12:00 PM81 °FPartly sunny.8 mph66%29.78 "Hg15 mi
11:00 AM79 °FPartly sunny.9 mph74%29.78 "Hg15 mi
10:00 AM77 °FBroken clouds.14 mph79%29.78 "Hg15 mi
9:00 AM75 °FPartly sunny.12 mph83%29.78 "Hg10 mi
8:00 AM73 °FBroken clouds.9 mph89%29.78 "Hg15 mi
7:00 AM72 °FPassing clouds.6 mph94%29.77 "Hg15 mi
6:00 AM72 °FPartly cloudy.8 mph88%29.75 "Hg15 mi
5:00 AM72 °FPassing clouds.8 mph88%29.75 "Hg15 mi
4:00 AM70 °FPartly cloudy.8 mph94%29.76 "Hg15 mi
3:00 AM72 °FPartly cloudy.6 mph88%29.77 "Hg15 mi
2:00 AM72 °FPassing clouds.6 mph88%29.78 "Hg15 mi
1:00 AM72 °FPassing clouds.8 mph88%29.80 "Hg15 mi
12:00 AM72 °FPassing clouds.9 mph88%29.80 "Hg15 mi
11:00 PM
Sep 1
72 °FPartly cloudy.9 mph88%29.82 "Hg15 mi
10:00 PM72 °FMostly cloudy.5 mph88%29.84 "Hg15 mi
9:00 PM73 °FPassing clouds.6 mph83%29.85 "Hg15 mi
8:00 PM73 °FBroken clouds.6 mph83%29.85 "Hg15 mi
7:00 PM77 °FPartly sunny.9 mph74%29.84 "Hg15 mi
6:00 PM79 °FPassing clouds.13 mph70%29.85 "Hg15 mi
Weather by CustomWeather, © 2014

See weather overviewHow to use our weather pages